{"data":{"norad_id":32767,"epoch":"2026-09-19T20:41:38.647968Z","epoch_age_seconds":69511,"freshness":"FRESH","line1":"1 32767U 08018A   26262.86225287  .00000000  00000+0  00000+0 0  9998","line2":"2 32767   0.0124 176.8038 0001872  17.2788 247.0419  1.00269760 67537","mean_motion":1.0026976,"eccentricity":0.0001872,"inclination_deg":0.0124,"raan_deg":176.8038,"arg_perigee_deg":17.2788,"mean_anomaly_deg":247.0419,"bstar":0,"rev_number":6753,"period_min":1436.1259067539,"perigee_km":35779.269307659,"apogee_km":35795.055995849,"semimajor_km":42165.299651754,"source":"CELESTRAK","updated_at":"2026-09-20T09:00:35.132103Z"}}